Regional Weather Roundup
Issued by NWS Kansas City/Pleasant Hill, MO

Home | Current Version | Previous Version | Text Only | Print | Product List | Glossary On
Versions: 1 2 3 4 5 6 7 8 9 10 11 12 13 14 15 16 17 18 19 20 21 22 23 24 25 26 27 28 29 30 31 32 33 34 35 36 37 38 39 40 41 42 43 44 45 46 47 48 49 50
000
ASUS43 KEAX 202011
RWREAX

WEATHER ROUNDUP FOR EASTERN KANSAS AND NORTHWEST MISSOURI
NATIONAL WEATHER SERVICE KANSAS CITY/PLEASANT HILL MO
300 PM CDT SUN APR 20 2014

KSZ040-057-103>105-MOZ028-029-037-043-202100-
...KANSAS CITY METROPOLITAN AREA...

CITY           SKY/WX    TMP DP  RH WIND       PRES   REMARKS
K.C. INTL      CLOUDY    75  53  46 S16       30.04F
K.C. DOWNTOWN  CLOUDY    77  53  43 S17       30.04F
LEES SUMMIT    CLOUDY    75  51  43 S10       30.06F
OLATHE - IXD   CLOUDY    76  54  46 S12       30.06F
OLATHE - OJC   CLOUDY    75  53  46 S13G23    30.06S
LAWRENCE       CLOUDY    76  54  46 S12       30.04S

$$

MOZ001>008-011>017-020>025-030>033-038>040-044>046-053-054-202100-
...NORTHERN AND CENTRAL MISSOURI...

CITY           SKY/WX    TMP DP  RH WIND       PRES   REMARKS
ST. JOSEPH     PTSUNNY   80  53  39 SW16G24   30.01F
MOSBY          FAIR      77  52  41 S8        30.04F
WARRENSBURG    PTSUNNY  N/A N/A N/A SW16      30.07F
WHITEMAN AFB   PTSUNNY   77  51  39 SW16G29   30.07F
CLINTON        PTSUNNY   77  54  44 SW8       30.09F
SEDALIA        MOSUNNY   79  50  36 SW14G24   30.08F
WARSAW         NOT AVBL
MARSHALL         N/A     82  54  36 SW16G23   30.07F
CHILLICOTHE      N/A     79  50  36 S10G22    30.05F
MOBERLY        MOSUNNY   81  46  30 S7G17     30.08F
KIRKSVILLE     MOSUNNY   79  48  33 S12G23    30.06F

$$

MOZ041-047>049-056>058-063>065-088>090-097-202100-
...EASTERN AND SOUTHERN MISSOURI...

CITY           SKY/WX    TMP DP  RH WIND       PRES   REMARKS
ST. LOUIS INTL PTSUNNY   81  42  25 S12       30.10F
SPIRIT OF STL  MOSUNNY   81  38  21 SE8       30.08F
COLUMBIA       MOSUNNY   79  49  34 S9G18     30.08F
JEFFERSON CITY MOSUNNY   79  48  33 S12       30.07F
MEXICO         MOSUNNY   77  50  38 S7G17     30.09F
HANNIBAL       SUNNY     82  39  21 S13       30.07F
ROLLA          SUNNY     78  47  33 S9        30.08F
LEBANON        MOSUNNY   79  45  29 SW10G16   30.11F
OSAGE BEACH    MOSUNNY   79  46  31 S10G18    30.10F
SPRINGFIELD    PTSUNNY   75  51  43 SW10      30.12S
BRANSON        CLOUDY    73  48  40 SW7       30.14S
NEVADA         CLOUDY    75  52  43 SW10      30.10F
JOPLIN         CLOUDY    73  51  46 SW9       30.10F
WEST PLAINS    SUNNY     76  47  35 SW6       30.13F

$$

IAZ060-094-KSZ022-034>040-054-083-096-NEZ052-066-093-202100-
...KANSAS...SOUTHEAST NEBRASKA AND IOWA...

CITY           SKY/WX    TMP DP  RH WIND       PRES   REMARKS
TOPEKA         CLOUDY    77  54  44 S13       30.03S
MANHATTAN      LGT RAIN  75  55  49 SW16G22   30.00S
EMPORIA        CLOUDY    73  54  51 S15       30.04F
CHANUTE        LGT RAIN  73  54  51 S15       30.09S
WICHITA        LGT RAIN  66  60  81 SE10      30.05F
OMAHA          CLOUDY    81  50  33 S12       29.93F
LINCOLN        CLOUDY    81  52  36 SW12      29.95F
FALLS CITY     PTSUNNY   83  54  36 S17G24    29.96F
LAMONI         MOSUNNY   78  52  40 S9G24     30.01F
DES MOINES     PTSUNNY   82  52  35 SW15G26   29.98F

$$




USA.gov is the U.S. government's official web portal to all federal, state and local government web resources and services.